Location: Avon School (historical)
(37.7514°N, 90.2201°W)
Time: 12:34:11
(UTC+00:00)

deb Explorer IX - All Passes

Search period start: 07 November 2024 00:00
Search period end: 17 November 2024 00:00
Orbit: 494 x 787 km, 38.7° (Epoch: 06 November)

Date Brightness Start Highest point End Pass type
(mag) Time Alt. Az. Time Alt. Az. Time Alt. Az.
07 Nov - 01:59:10 10° SW 02:04:01 35° SSE 02:09:02 10° E visible
07 Nov - 03:41:14 10° WSW 03:46:47 82° SSE 03:52:20 10° E night (unlit)
07 Nov - 05:24:22 10° W 05:29:58 81° N 05:35:23 10° E night (unlit)
07 Nov - 07:07:34 10° W 07:13:01 64° SSW 07:18:08 10° ESE night (unlit)
07 Nov - 08:51:30 10° W 08:55:24 21° SW 08:59:05 10° SSE night (unlit)
08 Nov - 00:41:11 10° S 00:44:42 18° SE 00:48:20 10° E visible
08 Nov - 02:21:45 10° SW 02:27:02 56° SSE 02:32:29 10° E visible
08 Nov - 04:04:28 10° W 04:10:02 83° N 04:15:35 10° E night (unlit)
08 Nov - 05:47:38 10° W 05:53:13 88° SSW 05:58:36 10° ESE night (unlit)
08 Nov - 07:30:55 10° W 07:35:59 40° SSW 07:40:48 10° SE night (unlit)
08 Nov - 09:17:43 10° SW 09:18:00 10° SW 09:18:16 10° SW night (unlit)
09 Nov - 01:02:37 10° SSW 01:07:15 32° SSE 01:12:06 10° E visible
09 Nov - 02:44:29 10° WSW 02:49:54 80° SSE 02:55:29 10° E visible
09 Nov - 04:27:29 10° W 04:33:03 80° N 04:38:34 10° E night (unlit)
09 Nov - 06:10:35 10° W 06:16:06 67° SSW 06:21:24 10° ESE night (unlit)
09 Nov - 07:54:19 10° W 07:58:32 23° SW 08:02:34 10° SSE night (unlit)
09 Nov - 23:44:27 10° S 23:47:30 16° SE 23:50:40 10° ESE visible
10 Nov - 01:24:36 10° SW 01:29:42 53° SSE 01:35:03 10° E visible
10 Nov - 03:07:09 10° W 03:12:36 84° N 03:18:10 10° E visible
10 Nov - 04:50:12 10° W 04:55:45 90° N 05:01:15 10° E night (unlit)
10 Nov - 06:33:21 10° W 06:38:34 43° SSW 06:43:35 10° SE night (unlit)
10 Nov - 08:18:45 10° WSW 08:20:38 12° SW 08:22:29 10° SSW night (unlit)
11 Nov - 00:05:09 10° SSW 00:09:29 29° SSE 00:14:05 10° E visible
11 Nov - 01:46:45 10° WSW 01:52:00 77° SSE 01:57:30 10° E visible
11 Nov - 03:29:37 10° W 03:35:04 80° N 03:40:37 10° E night (unlit)
11 Nov - 05:12:36 10° W 05:18:06 70° SSW 05:23:32 10° ESE night (unlit)
11 Nov - 06:56:07 10° W 07:00:36 26° SSW 07:04:56 10° SSE night (unlit)
11 Nov - 22:46:53 10° S 22:49:17 14° SE 22:51:47 10° ESE daylight
12 Nov - 00:26:30 10° SW 00:31:20 49° SSE 00:36:31 10° E visible
12 Nov - 02:08:51 10° W 02:14:08 85° N 02:19:40 10° E visible
12 Nov - 03:51:46 10° W 03:57:14 88° N 04:02:47 10° E night (unlit)
12 Nov - 05:34:47 10° W 05:40:03 47° SSW 05:45:14 10° SE night (unlit)
12 Nov - 07:19:33 10° WSW 07:22:12 14° SW 07:24:47 10° S night (unlit)
12 Nov - 23:06:43 10° SSW 23:10:42 26° SSE 23:14:56 10° E daylight
13 Nov - 00:48:03 10° WSW 00:53:04 73° SSE 00:58:28 10° E visible
13 Nov - 02:30:45 10° W 02:36:03 80° N 02:41:34 10° E visible
13 Nov - 04:13:37 10° W 04:19:03 74° SSW 04:24:33 10° ESE night (unlit)
13 Nov - 05:56:56 10° W 06:01:35 28° SSW 06:06:09 10° SSE night (unlit)
13 Nov - 21:48:46 10° SSE 21:50:05 11° SE 21:51:26 10° ESE daylight
13 Nov - 23:27:25 10° SW 23:31:59 44° SSE 23:36:54 10° E visible
14 Nov - 01:09:34 10° W 01:14:38 87° NNW 01:20:05 10° E visible
14 Nov - 02:52:21 10° W 02:57:41 85° N 03:03:12 10° E visible
14 Nov - 04:35:14 10° W 04:40:29 50° SSW 04:45:47 10° SE night (unlit)
14 Nov - 06:19:31 10° WSW 06:22:41 16° SW 06:25:49 10° S night (unlit)
14 Nov - 22:07:23 10° SSW 22:10:55 22° SE 22:14:42 10° E daylight
14 Nov - 23:48:21 10° WSW 23:53:08 68° SSE 23:58:20 10° E visible
15 Nov - 01:30:54 10° W 01:36:00 79° N 01:41:26 10° E visible
15 Nov - 03:13:40 10° W 03:18:58 77° SSW 03:24:27 10° ESE visible
15 Nov - 04:56:46 10° W 05:01:30 31° SSW 05:06:16 10° SSE night (unlit)
15 Nov - 22:27:23 10° SW 22:31:37 38° SSE 22:36:15 10° E daylight
16 Nov - 00:09:18 10° WSW 00:14:08 90° S 00:19:25 10° E visible
16 Nov - 01:51:58 10° W 01:57:05 83° N 02:02:31 10° E visible
16 Nov - 03:34:42 10° W 03:39:53 54° SSW 03:45:12 10° SE night (unlit)
16 Nov - 05:18:35 10° WSW 05:22:08 18° SW 05:25:40 10° S night (unlit)
16 Nov - 21:07:09 10° S 21:10:09 18° SE 21:13:21 10° E daylight
16 Nov - 22:47:41 10° WSW 22:52:13 62° SSE 22:57:10 10° E daylight
